Regional Weather Roundup
Issued by NWS

Home | Current Version | Previous Version | Text Only | Print | Product List | Glossary Off
Versions: 1 2 3 4 5 6 7 8 9 10 11 12 13 14 15 16 17 18 19 20 21 22 23 24 25 26 27 28 29 30 31 32 33 34 35 36 37 38 39 40 41 42 43 44 45 46 47 48 49 50

628
ASUS45 KABQ 242310
RWRNM
NEW MEXICO REGIONAL WEATHER ROUNDUP
NATIONAL WEATHER SERVICE ALBUQUERQUE NM
400 PM MST FRI FEB 24 2017

NOTE: "FAIR" MEANS FEW OR NO CLOUDS BELOW 12,000 FEET AGL WITH NO
       SIGNIFICANT WEATHER OR OBSTRUCTIONS TO VISION.

      THIS PRODUCT IS RELEASED AS TWO VERSIONS.  ONE VERSION NEAR
      THE TOP OF THE HOUR CONTAINING PRELIMINARY DATA FROM ALBUQUERQUE
      AND OTHER STATIONS.  A FINAL VERSION WITH ADDITIONAL DATA IS
      ISSUED ABOUT 10 MINUTES AFTER THE HOUR.

NMZ501-503-504-510>518-250000-
NORTHWEST PLATEAU/NORTHCENTRAL MOUNTAINS

CITY           SKY/WX    TMP DP  RH WIND       PRES   REMARKS
FARMINGTON     FAIR      38  -1  19 W14G31    29.94R WCI  30
LOS ALAMOS     FAIR      34  -9  15 W22G32    29.91S WCI  22
SANTA FE       FAIR      41  -8  12 W22G38    29.90R
TAOS           FAIR      34   1  25 NW17G23   29.90S WCI  23
ANGEL FIRE     PTSUNNY   26   2  34 W20G26    29.86R WCI  12

$$
NMZ402-403-502-505>509-250000-
WESTCENTRAL MOUNTAINS/SOUTHWEST MOUNTAINS

CITY           SKY/WX    TMP DP  RH WIND       PRES   REMARKS
GALLUP         FAIR      40  -2  17 W23G33    29.97R WCI  30
GRANTS         FAIR      40  -4  15 W22G33    29.97R WCI  30
SILVER CITY    FAIR      49   4  15 W24G39    30.01S

$$
NMZ407-409-411-412-250000-
SOUTHERN DESERTS

CITY           SKY/WX    TMP DP  RH WIND       PRES   REMARKS
DEMING         FAIR      56   8  14 W26G38    30.00F
LAS CRUCES     FAIR      56   6  13 W24G36    29.99R
HOLLOMAN AFB   FAIR      61  -1   8 SW18G26   29.95F
ALAMOGORDO     FAIR      59   1  10 S13       29.94S
T OR C         FAIR      61   1   9 NW16G22   29.90R

$$
NMZ519>523-250000-
CENTRAL VALLEYS/CENTRAL HIGHLANDS

CITY           SKY/WX    TMP DP  RH WIND       PRES   REMARKS
ALBUQUERQUE    FAIR      47  -3  12 W17G28    29.94R
DOUBLE EAGLE   MOSUNNY   45   0  15 W18G31    29.94R
MORIARTY ARPT  FAIR      45  -2  14 W28G33    29.92S
CLINES CORNERS FAIR      39  -2  17 W29G35    29.90S WCI  27
BELEN          FAIR      49  -1  13 W18G29    29.95S
SOCORRO        FAIR      55   3  12 N15G23    29.92S

$$
NMZ524>526-539-540-250000-
SOUTHCENTRAL MOUNTAINS

CITY           SKY/WX    TMP DP  RH WIND       PRES   REMARKS
RUIDOSO        FAIR      45   0  15 W14G21    29.95S

$$
NMZ527>531-250000-
NORTHEAST HIGHLANDS/NORTHEAST PLAINS

CITY           SKY/WX    TMP DP  RH WIND       PRES   REMARKS
LAS VEGAS      FAIR      39  -4  16 W25G40    29.87R WCI  28
RATON          CLOUDY    40  -4  15 W17       29.85R WCI  31
CLAYTON        CLOUDY    37  16  42 NE9       29.93R WCI  30

$$
NMZ532>537-250000-
EASTCENTRAL PLAINS

CITY           SKY/WX    TMP DP  RH WIND       PRES   REMARKS
TUCUMCARI      FAIR      54  -2  10 W25G36    29.86R
CANNON AFB     NOT AVBL
CLOVIS AIRPORT FAIR      54   5  14 W22G28    29.90R

$$
NMZ028-029-538-250000-
SOUTHEAST PLAINS

CITY           SKY/WX    TMP DP  RH WIND       PRES   REMARKS
ROSWELL        FAIR      63   5  10 E7          N/A
ARTESIA        FAIR      63   7  11 CALM      29.88R
CARLSBAD       FAIR      65  -8   5 W30G38    29.87R
HOBBS          SUNNY     64   0   7 SW17      29.88S


$$




USA.gov is the U.S. government's official web portal to all federal, state and local government web resources and services.